Year,Month,Day,Hour,Minute,Value (Times are PST for temperature in C)
2016,08,15,00,00,18.00
2016,08,15,00,01,17.90
2016,08,15,00,02,17.90
2016,08,15,00,03,17.90
2016,08,15,00,04,17.90
2016,08,15,00,05,17.90
2016,08,15,00,06,17.90
2016,08,15,00,07,17.90
2016,08,15,00,08,17.90
2016,08,15,00,09,17.90
2016,08,15,00,10,17.80
2016,08,15,00,11,17.80
2016,08,15,00,12,17.80
2016,08,15,00,13,17.80
2016,08,15,00,14,17.80
2016,08,15,00,15,17.70
2016,08,15,00,16,17.70
2016,08,15,00,17,17.70
2016,08,15,00,18,17.70
2016,08,15,00,19,17.70
2016,08,15,00,20,17.60
2016,08,15,00,21,17.60
2016,08,15,00,22,17.60
2016,08,15,00,23,17.60
2016,08,15,00,24,17.60
2016,08,15,00,25,17.50
2016,08,15,00,26,17.50
2016,08,15,00,27,17.50
2016,08,15,00,28,17.50
2016,08,15,00,29,17.50
2016,08,15,00,30,17.50
2016,08,15,00,31,17.50
2016,08,15,00,32,17.50
2016,08,15,00,33,17.50
2016,08,15,00,34,17.50
2016,08,15,00,35,17.50
2016,08,15,00,36,17.50
2016,08,15,00,37,17.50
2016,08,15,00,38,17.50
2016,08,15,00,39,17.50
2016,08,15,00,40,17.50
2016,08,15,00,41,17.40
2016,08,15,00,42,17.40
2016,08,15,00,43,17.40
2016,08,15,00,44,17.40
2016,08,15,00,45,17.40
2016,08,15,00,46,17.40
2016,08,15,00,47,17.40
2016,08,15,00,48,17.40
2016,08,15,00,49,17.40
2016,08,15,00,50,17.40
2016,08,15,00,51,17.40
2016,08,15,00,52,17.40
2016,08,15,00,53,17.40
2016,08,15,00,54,17.40
2016,08,15,00,55,17.40
2016,08,15,00,56,17.40
2016,08,15,00,57,17.40
2016,08,15,00,58,17.40
2016,08,15,00,59,17.40
2016,08,15,01,00,17.40
2016,08,15,01,01,17.40
2016,08,15,01,02,17.40
2016,08,15,01,03,17.40
2016,08,15,01,04,17.40
2016,08,15,01,05,17.40
2016,08,15,01,06,17.40
2016,08,15,01,07,17.40
2016,08,15,01,08,17.40
2016,08,15,01,09,17.40
2016,08,15,01,10,17.40
2016,08,15,01,11,17.40
2016,08,15,01,12,17.40
2016,08,15,01,13,17.40
2016,08,15,01,14,17.30
2016,08,15,01,15,17.30
2016,08,15,01,16,17.30
2016,08,15,01,17,17.30
2016,08,15,01,18,17.20
2016,08,15,01,19,17.20
2016,08,15,01,20,17.20
2016,08,15,01,21,17.20
2016,08,15,01,22,17.20
2016,08,15,01,23,17.10
2016,08,15,01,24,17.10
2016,08,15,01,25,17.10
2016,08,15,01,26,17.10
2016,08,15,01,27,17.10
2016,08,15,01,28,17.10
2016,08,15,01,29,17.00
2016,08,15,01,30,17.00
2016,08,15,01,31,17.00
2016,08,15,01,32,17.00
2016,08,15,01,33,17.00
2016,08,15,01,34,17.00
2016,08,15,01,35,17.00
2016,08,15,01,36,17.00
2016,08,15,01,37,17.00
2016,08,15,01,38,17.00
2016,08,15,01,39,17.00
2016,08,15,01,40,16.90
2016,08,15,01,41,16.90
2016,08,15,01,42,16.90
2016,08,15,01,43,17.00
2016,08,15,01,44,17.00
2016,08,15,01,45,17.10
2016,08,15,01,46,17.10
2016,08,15,01,47,17.10
2016,08,15,01,48,17.10
2016,08,15,01,49,17.10
2016,08,15,01,50,17.10
2016,08,15,01,51,17.10
2016,08,15,01,52,17.10
2016,08,15,01,53,17.00
2016,08,15,01,54,17.00
2016,08,15,01,55,16.90
2016,08,15,01,56,16.90
2016,08,15,01,57,16.90
2016,08,15,01,58,16.90
2016,08,15,01,59,16.90
2016,08,15,02,00,16.90
2016,08,15,02,01,16.80
2016,08,15,02,02,16.90
2016,08,15,02,03,16.90
2016,08,15,02,04,16.90
2016,08,15,02,05,16.90
2016,08,15,02,06,16.90
2016,08,15,02,07,16.90
2016,08,15,02,08,16.90
2016,08,15,02,09,16.90
2016,08,15,02,10,16.90
2016,08,15,02,11,16.80
2016,08,15,02,12,16.80
2016,08,15,02,13,16.80
2016,08,15,02,14,16.80
2016,08,15,02,15,16.70
2016,08,15,02,16,16.70
2016,08,15,02,17,16.70
2016,08,15,02,18,16.60
2016,08,15,02,19,16.60
2016,08,15,02,20,16.60
2016,08,15,02,21,16.60
2016,08,15,02,22,16.60
2016,08,15,02,23,16.50
2016,08,15,02,24,16.50
2016,08,15,02,25,16.50
2016,08,15,02,26,16.50
2016,08,15,02,27,16.40
2016,08,15,02,28,16.40
2016,08,15,02,29,16.40
2016,08,15,02,30,16.40
2016,08,15,02,31,16.40
2016,08,15,02,32,16.40
2016,08,15,02,33,16.40
2016,08,15,02,34,16.40
2016,08,15,02,35,16.40
2016,08,15,02,36,16.40
2016,08,15,02,37,16.40
2016,08,15,02,38,16.40
2016,08,15,02,39,16.40
2016,08,15,02,40,16.40
2016,08,15,02,41,16.30
2016,08,15,02,42,16.30
2016,08,15,02,43,16.30
2016,08,15,02,44,16.30
2016,08,15,02,45,16.30
2016,08,15,02,46,16.30
2016,08,15,02,47,16.30
2016,08,15,02,48,16.30
2016,08,15,02,49,16.30
2016,08,15,02,50,16.30
2016,08,15,02,51,16.20
2016,08,15,02,52,16.20
2016,08,15,02,53,16.20
2016,08,15,02,54,16.20
2016,08,15,02,55,16.20
2016,08,15,02,56,16.20
2016,08,15,02,57,16.20
2016,08,15,02,58,16.20
2016,08,15,02,59,16.20
2016,08,15,03,00,16.20
2016,08,15,03,01,16.20
2016,08,15,03,02,16.20
2016,08,15,03,03,16.10
2016,08,15,03,04,16.10
2016,08,15,03,05,16.10
2016,08,15,03,06,16.10
2016,08,15,03,07,16.10
2016,08,15,03,08,16.10
2016,08,15,03,09,16.10
2016,08,15,03,10,16.10
2016,08,15,03,11,16.00
2016,08,15,03,12,16.00
2016,08,15,03,13,15.90
2016,08,15,03,14,15.90
2016,08,15,03,15,15.90
2016,08,15,03,16,15.90
2016,08,15,03,17,15.90
2016,08,15,03,18,15.90
2016,08,15,03,19,15.90
2016,08,15,03,20,15.90
2016,08,15,03,21,15.90
2016,08,15,03,22,15.90
2016,08,15,03,23,15.90
2016,08,15,03,24,15.80
2016,08,15,03,25,15.80
2016,08,15,03,26,15.80
2016,08,15,03,27,15.80
2016,08,15,03,28,15.80
2016,08,15,03,29,15.80
2016,08,15,03,30,15.70
2016,08,15,03,31,15.70
2016,08,15,03,32,15.70
2016,08,15,03,33,15.70
2016,08,15,03,34,15.70
2016,08,15,03,35,15.70
2016,08,15,03,36,15.70
2016,08,15,03,37,15.70
2016,08,15,03,38,15.70
2016,08,15,03,39,15.70
2016,08,15,03,40,15.70
2016,08,15,03,41,15.70
2016,08,15,03,42,15.70
2016,08,15,03,43,15.70
2016,08,15,03,44,15.70
2016,08,15,03,45,15.70
2016,08,15,03,46,15.70
2016,08,15,03,47,15.60
2016,08,15,03,48,15.60
2016,08,15,03,49,15.60
2016,08,15,03,50,15.60
2016,08,15,03,51,15.60
2016,08,15,03,52,15.70
2016,08,15,03,53,15.70
2016,08,15,03,54,15.70
2016,08,15,03,55,15.60
2016,08,15,03,56,15.60
2016,08,15,03,57,15.60
2016,08,15,03,58,15.60
2016,08,15,03,59,15.60
2016,08,15,04,00,15.60
2016,08,15,04,01,15.60
2016,08,15,04,02,15.60
2016,08,15,04,03,15.60
2016,08,15,04,04,15.60
2016,08,15,04,05,15.60
2016,08,15,04,06,15.60
2016,08,15,04,07,15.60
2016,08,15,04,08,15.60
2016,08,15,04,09,15.60
2016,08,15,04,10,15.60
2016,08,15,04,11,15.60
2016,08,15,04,12,15.60
2016,08,15,04,13,15.60
2016,08,15,04,14,15.60
2016,08,15,04,15,15.60
2016,08,15,04,16,15.60
2016,08,15,04,17,15.60
2016,08,15,04,18,15.60
2016,08,15,04,19,15.60
2016,08,15,04,20,15.50
2016,08,15,04,21,15.50
2016,08,15,04,22,15.50
2016,08,15,04,23,15.50
2016,08,15,04,24,15.50
2016,08,15,04,25,15.50
2016,08,15,04,26,15.40
2016,08,15,04,27,15.40
2016,08,15,04,28,15.40
2016,08,15,04,29,15.40
2016,08,15,04,30,15.40
2016,08,15,04,31,15.30
2016,08,15,04,32,15.30
2016,08,15,04,33,15.30
2016,08,15,04,34,15.30
2016,08,15,04,35,15.30
2016,08,15,04,36,15.30
2016,08,15,04,37,15.30
2016,08,15,04,38,15.30
2016,08,15,04,39,15.30
2016,08,15,04,40,15.30
2016,08,15,04,41,15.30
2016,08,15,04,42,15.30
2016,08,15,04,43,15.30
2016,08,15,04,44,15.30
2016,08,15,04,45,15.30
2016,08,15,04,46,15.20
2016,08,15,04,47,15.20
2016,08,15,04,48,15.20
2016,08,15,04,49,15.20
2016,08,15,04,50,15.20
2016,08,15,04,51,15.20
2016,08,15,04,52,15.20
2016,08,15,04,53,15.20
2016,08,15,04,54,15.20
2016,08,15,04,55,15.20
2016,08,15,04,56,15.10
2016,08,15,04,57,15.10
2016,08,15,04,58,15.10
2016,08,15,04,59,15.10
2016,08,15,05,00,15.10
2016,08,15,05,01,15.10
2016,08,15,05,02,15.10
2016,08,15,05,03,15.10
2016,08,15,05,04,15.10
2016,08,15,05,05,15.10
2016,08,15,05,06,15.10
2016,08,15,05,07,15.10
2016,08,15,05,08,15.10
2016,08,15,05,09,15.00
2016,08,15,05,10,15.00
2016,08,15,05,11,15.00
2016,08,15,05,12,15.00
2016,08,15,05,13,15.00
2016,08,15,05,14,14.90
2016,08,15,05,15,14.90
2016,08,15,05,16,14.90
2016,08,15,05,17,14.90
2016,08,15,05,18,14.90
2016,08,15,05,19,14.90
2016,08,15,05,20,14.90
2016,08,15,05,21,14.90
2016,08,15,05,22,14.90
2016,08,15,05,23,14.90
2016,08,15,05,24,14.90
2016,08,15,05,25,14.90
2016,08,15,05,26,14.90
2016,08,15,05,27,14.90
2016,08,15,05,28,14.90
2016,08,15,05,29,14.90
2016,08,15,05,30,14.90
2016,08,15,05,31,14.90
2016,08,15,05,32,14.90
2016,08,15,05,33,14.90
2016,08,15,05,34,14.90
2016,08,15,05,35,14.90
2016,08,15,05,36,14.90
2016,08,15,05,37,14.90
2016,08,15,05,38,14.90
2016,08,15,05,39,14.80
2016,08,15,05,40,14.80
2016,08,15,05,41,14.80
2016,08,15,05,42,14.80
2016,08,15,05,43,14.80
2016,08,15,05,44,14.80
2016,08,15,05,45,14.80
2016,08,15,05,46,14.80
2016,08,15,05,47,14.90
2016,08,15,05,48,14.90
2016,08,15,05,49,14.90
2016,08,15,05,50,14.90
2016,08,15,05,51,14.90
2016,08,15,05,52,14.90
2016,08,15,05,53,14.90
2016,08,15,05,54,14.80
2016,08,15,05,55,14.80
2016,08,15,05,56,14.80
2016,08,15,05,57,14.80
2016,08,15,05,58,14.80
2016,08,15,05,59,14.80
2016,08,15,06,00,14.80
2016,08,15,06,01,14.80
2016,08,15,06,02,14.80
2016,08,15,06,03,14.80
2016,08,15,06,04,14.80
2016,08,15,06,05,14.80
2016,08,15,06,06,14.80
2016,08,15,06,07,14.80
2016,08,15,06,08,14.80
2016,08,15,06,09,14.80
2016,08,15,06,10,14.80
2016,08,15,06,11,14.80
2016,08,15,06,12,14.80
2016,08,15,06,13,14.80
2016,08,15,06,14,14.70
2016,08,15,06,15,14.70
2016,08,15,06,16,14.70
2016,08,15,06,17,14.70
2016,08,15,06,18,14.70
2016,08,15,06,19,14.70
2016,08,15,06,20,14.70
2016,08,15,06,21,14.70
2016,08,15,06,22,14.70
2016,08,15,06,23,14.70
2016,08,15,06,24,14.70
2016,08,15,06,25,14.70
2016,08,15,06,26,14.70
2016,08,15,06,27,14.70
2016,08,15,06,28,14.80
2016,08,15,06,29,14.80
2016,08,15,06,30,14.80
2016,08,15,06,31,14.80
2016,08,15,06,32,14.80
2016,08,15,06,33,14.80
2016,08,15,06,34,14.70
2016,08,15,06,35,14.70
2016,08,15,06,36,14.80
2016,08,15,06,37,14.80
2016,08,15,06,38,14.70
2016,08,15,06,39,14.70
2016,08,15,06,40,14.70
2016,08,15,06,41,14.70
2016,08,15,06,42,14.70
2016,08,15,06,43,14.70
2016,08,15,06,44,14.70
2016,08,15,06,45,14.70
2016,08,15,06,46,14.70
2016,08,15,06,47,14.70
2016,08,15,06,48,14.70
2016,08,15,06,49,14.70
2016,08,15,06,50,14.70
2016,08,15,06,51,14.70
2016,08,15,06,52,14.70
2016,08,15,06,53,14.70
2016,08,15,06,54,14.70
2016,08,15,06,55,14.70
2016,08,15,06,56,14.70
2016,08,15,06,57,14.70
2016,08,15,06,58,14.70
2016,08,15,06,59,14.70
2016,08,15,07,00,14.80
2016,08,15,07,01,14.80
2016,08,15,07,02,14.80
2016,08,15,07,03,14.80
2016,08,15,07,04,14.90
2016,08,15,07,05,14.90
2016,08,15,07,06,14.90
2016,08,15,07,07,14.90
2016,08,15,07,08,14.90
2016,08,15,07,09,14.90
2016,08,15,07,10,14.90
2016,08,15,07,11,14.90
2016,08,15,07,12,14.90
2016,08,15,07,13,15.00
2016,08,15,07,14,15.00
2016,08,15,07,15,15.00
2016,08,15,07,16,15.00
2016,08,15,07,17,15.10
2016,08,15,07,18,15.10
2016,08,15,07,19,15.10
2016,08,15,07,20,15.20
2016,08,15,07,21,15.20
2016,08,15,07,22,15.30
2016,08,15,07,23,15.30
2016,08,15,07,24,15.40
2016,08,15,07,25,15.40
2016,08,15,07,26,15.50
2016,08,15,07,27,15.60
2016,08,15,07,28,15.70
2016,08,15,07,29,15.80
2016,08,15,07,30,15.80
2016,08,15,07,31,15.90
2016,08,15,07,32,16.00
2016,08,15,07,33,16.10
2016,08,15,07,34,16.20
2016,08,15,07,35,16.20
2016,08,15,07,36,16.30
2016,08,15,07,37,16.40
2016,08,15,07,38,16.50
2016,08,15,07,39,16.50
2016,08,15,07,40,16.60
2016,08,15,07,41,16.70
2016,08,15,07,42,16.80
2016,08,15,07,43,16.80
2016,08,15,07,44,16.90
2016,08,15,07,45,17.00
2016,08,15,07,46,17.10
2016,08,15,07,47,17.10
2016,08,15,07,48,17.20
2016,08,15,07,49,17.30
2016,08,15,07,50,17.40
2016,08,15,07,51,17.50
2016,08,15,07,52,17.60
2016,08,15,07,53,17.60
2016,08,15,07,54,17.70
2016,08,15,07,55,17.70
2016,08,15,07,56,17.70
2016,08,15,07,57,17.80
2016,08,15,07,58,17.80
2016,08,15,07,59,17.90
2016,08,15,08,00,17.90
2016,08,15,08,01,17.90
2016,08,15,08,02,17.90
2016,08,15,08,03,18.00
2016,08,15,08,04,18.00
2016,08,15,08,05,18.10
2016,08,15,08,06,18.10
2016,08,15,08,07,18.20
2016,08,15,08,08,18.20
2016,08,15,08,09,18.30
2016,08,15,08,10,18.40
2016,08,15,08,11,18.50
2016,08,15,08,12,18.60
2016,08,15,08,13,18.60
2016,08,15,08,14,18.60
2016,08,15,08,15,18.70
2016,08,15,08,16,18.70
2016,08,15,08,17,18.70
2016,08,15,08,18,18.70
2016,08,15,08,19,18.70
2016,08,15,08,20,18.70
2016,08,15,08,21,18.80
2016,08,15,08,22,18.80
2016,08,15,08,23,18.80
2016,08,15,08,24,18.80
2016,08,15,08,25,18.90
2016,08,15,08,26,18.90
2016,08,15,08,27,18.90
2016,08,15,08,28,18.90
2016,08,15,08,29,19.00
2016,08,15,08,30,19.00
2016,08,15,08,31,19.00
2016,08,15,08,32,19.00
2016,08,15,08,33,19.00
2016,08,15,08,34,19.10
2016,08,15,08,35,19.10
2016,08,15,08,36,19.20
2016,08,15,08,37,19.20
2016,08,15,08,38,19.20
2016,08,15,08,39,19.20
2016,08,15,08,40,19.20
2016,08,15,08,41,19.20
2016,08,15,08,42,19.20
2016,08,15,08,43,19.20
2016,08,15,08,44,19.20
2016,08,15,08,45,19.30
2016,08,15,08,46,19.30
2016,08,15,08,47,19.30
2016,08,15,08,48,19.20
2016,08,15,08,49,19.20
2016,08,15,08,50,19.30
2016,08,15,08,51,19.30
2016,08,15,08,52,19.30
2016,08,15,08,53,19.40
2016,08,15,08,54,19.50
2016,08,15,08,55,19.60
2016,08,15,08,56,19.60
2016,08,15,08,57,19.60
2016,08,15,08,58,19.70
2016,08,15,08,59,19.70
2016,08,15,09,00,19.80
2016,08,15,09,01,19.80
2016,08,15,09,02,19.80
2016,08,15,09,03,19.80
2016,08,15,09,04,19.80
2016,08,15,09,05,19.90
2016,08,15,09,06,19.90
2016,08,15,09,07,19.90
2016,08,15,09,08,19.90
2016,08,15,09,09,19.90
2016,08,15,09,10,19.90
2016,08,15,09,11,19.90
2016,08,15,09,12,19.90
2016,08,15,09,13,19.90
2016,08,15,09,14,20.00
2016,08,15,09,15,19.90
2016,08,15,09,16,19.90
2016,08,15,09,17,19.90
2016,08,15,09,18,20.00
2016,08,15,09,19,20.00
2016,08,15,09,20,20.10
2016,08,15,09,21,20.10
2016,08,15,09,22,20.10
2016,08,15,09,23,20.10
2016,08,15,09,24,20.20
2016,08,15,09,25,20.20
2016,08,15,09,26,20.30
2016,08,15,09,27,20.30
2016,08,15,09,28,20.30
2016,08,15,09,29,20.30
2016,08,15,09,30,20.40
2016,08,15,09,31,20.40
2016,08,15,09,32,20.40
2016,08,15,09,33,20.40
2016,08,15,09,34,20.40
2016,08,15,09,35,20.50
2016,08,15,09,36,20.50
2016,08,15,09,37,20.60
2016,08,15,09,38,20.60
2016,08,15,09,39,20.60
2016,08,15,09,40,20.60
2016,08,15,09,41,20.60
2016,08,15,09,42,20.70
2016,08,15,09,43,20.80
2016,08,15,09,44,20.80
2016,08,15,09,45,20.80
2016,08,15,09,46,20.80
2016,08,15,09,47,20.80
2016,08,15,09,48,20.80
2016,08,15,09,49,20.70
2016,08,15,09,50,20.70
2016,08,15,09,51,20.60
2016,08,15,09,52,20.60
2016,08,15,09,53,20.60
2016,08,15,09,54,20.60
2016,08,15,09,55,20.60
2016,08,15,09,56,20.60
2016,08,15,09,57,20.60
2016,08,15,09,58,20.50
2016,08,15,09,59,20.50
2016,08,15,10,00,20.50
2016,08,15,10,01,20.60
2016,08,15,10,02,20.70
2016,08,15,10,03,20.80
2016,08,15,10,04,20.90
2016,08,15,10,05,21.00
2016,08,15,10,06,21.10
2016,08,15,10,07,21.30
2016,08,15,10,08,21.40
2016,08,15,10,09,21.50
2016,08,15,10,10,21.60
2016,08,15,10,11,21.70
2016,08,15,10,12,21.80
2016,08,15,10,13,21.90
2016,08,15,10,14,21.90
2016,08,15,10,15,22.00
2016,08,15,10,16,22.00
2016,08,15,10,17,22.00
2016,08,15,10,18,22.00
2016,08,15,10,19,22.00
2016,08,15,10,20,22.00
2016,08,15,10,21,22.00
2016,08,15,10,22,22.00
2016,08,15,10,23,21.90
2016,08,15,10,24,21.90
2016,08,15,10,25,22.00
2016,08,15,10,26,22.00
2016,08,15,10,27,21.80
2016,08,15,10,28,21.80
2016,08,15,10,29,21.80
2016,08,15,10,30,21.90
2016,08,15,10,31,21.90
2016,08,15,10,32,21.90
2016,08,15,10,33,21.90
2016,08,15,10,34,21.90
2016,08,15,10,35,21.90
2016,08,15,10,36,21.80
2016,08,15,10,37,21.80
2016,08,15,10,38,21.80
2016,08,15,10,39,21.80
2016,08,15,10,40,21.80
2016,08,15,10,41,21.80
2016,08,15,10,42,21.70
2016,08,15,10,43,21.70
2016,08,15,10,44,21.60
2016,08,15,10,45,21.50
2016,08,15,10,46,21.40
2016,08,15,10,47,21.50
2016,08,15,10,48,21.50
2016,08,15,10,49,21.60
2016,08,15,10,50,21.70
2016,08,15,10,51,21.80
2016,08,15,10,52,21.90
2016,08,15,10,53,22.00
2016,08,15,10,54,22.10
2016,08,15,10,55,22.20
2016,08,15,10,56,22.30
2016,08,15,10,57,22.30
2016,08,15,10,58,22.40
2016,08,15,10,59,22.50
2016,08,15,11,00,22.50
2016,08,15,11,01,22.60
2016,08,15,11,02,22.60
2016,08,15,11,03,22.70
2016,08,15,11,04,22.70
2016,08,15,11,05,22.70
2016,08,15,11,06,22.70
2016,08,15,11,07,22.70
2016,08,15,11,08,22.70
2016,08,15,11,09,22.70
2016,08,15,11,10,22.70
2016,08,15,11,11,22.70
2016,08,15,11,12,22.60
2016,08,15,11,13,22.60
2016,08,15,11,14,22.60
2016,08,15,11,15,22.70
2016,08,15,11,16,22.70
2016,08,15,11,17,22.70
2016,08,15,11,18,22.70
2016,08,15,11,19,22.60
2016,08,15,11,20,22.50
2016,08,15,11,21,22.50
2016,08,15,11,22,22.40
2016,08,15,11,23,22.50
2016,08,15,11,24,22.50
2016,08,15,11,25,22.60
2016,08,15,11,26,22.60
2016,08,15,11,27,22.70
2016,08,15,11,28,22.80
2016,08,15,11,29,22.90
2016,08,15,11,30,23.00
2016,08,15,11,31,23.10
2016,08,15,11,32,23.30
2016,08,15,11,33,23.40
2016,08,15,11,34,23.40
2016,08,15,11,35,23.50
2016,08,15,11,36,23.60
2016,08,15,11,37,23.70
2016,08,15,11,38,23.80
2016,08,15,11,39,23.80
2016,08,15,11,40,23.80
2016,08,15,11,41,23.70
2016,08,15,11,42,23.60
2016,08,15,11,43,23.50
2016,08,15,11,44,23.50
2016,08,15,11,45,23.50
2016,08,15,11,46,23.40
2016,08,15,11,47,23.30
2016,08,15,11,48,23.30
2016,08,15,11,49,23.30
2016,08,15,11,50,23.30
2016,08,15,11,51,23.30
2016,08,15,11,52,23.30
2016,08,15,11,53,23.30
2016,08,15,11,54,23.20
2016,08,15,11,55,23.20
2016,08,15,11,56,23.30
2016,08,15,11,57,23.40
2016,08,15,11,58,23.40
2016,08,15,11,59,23.40
2016,08,15,12,00,23.40
2016,08,15,12,01,23.40
2016,08,15,12,02,23.40
2016,08,15,12,03,23.40
2016,08,15,12,04,23.30
2016,08,15,12,05,23.30
2016,08,15,12,06,23.30
2016,08,15,12,07,23.20
2016,08,15,12,08,23.10
2016,08,15,12,09,22.90
2016,08,15,12,10,22.90
2016,08,15,12,11,22.80
2016,08,15,12,12,22.80
2016,08,15,12,13,22.90
2016,08,15,12,14,22.90
2016,08,15,12,15,23.00
2016,08,15,12,16,23.00
2016,08,15,12,17,23.00
2016,08,15,12,18,23.00
2016,08,15,12,19,23.00
2016,08,15,12,20,23.00
2016,08,15,12,21,23.00
2016,08,15,12,22,23.10
2016,08,15,12,23,23.10
2016,08,15,12,24,23.10
2016,08,15,12,25,23.10
2016,08,15,12,26,23.00
2016,08,15,12,27,23.10
2016,08,15,12,28,23.10
2016,08,15,12,29,23.20
2016,08,15,12,30,23.10
2016,08,15,12,31,23.10
2016,08,15,12,32,23.10
2016,08,15,12,33,23.10
2016,08,15,12,34,23.10
2016,08,15,12,35,23.10
2016,08,15,12,36,23.00
2016,08,15,12,37,23.10
2016,08,15,12,38,23.10
2016,08,15,12,39,23.20
2016,08,15,12,40,23.30
2016,08,15,12,41,23.30
2016,08,15,12,42,23.30
2016,08,15,12,43,23.30
2016,08,15,12,44,23.40
2016,08,15,12,45,23.40
2016,08,15,12,46,23.50
2016,08,15,12,47,23.60
2016,08,15,12,48,23.70
2016,08,15,12,49,23.70
2016,08,15,12,50,23.60
2016,08,15,12,51,23.60
2016,08,15,12,52,23.60
2016,08,15,12,53,23.60
2016,08,15,12,54,23.70
2016,08,15,12,55,23.70
2016,08,15,12,56,23.70
2016,08,15,12,57,23.70
2016,08,15,12,58,23.80
2016,08,15,12,59,23.80
2016,08,15,13,00,23.80
2016,08,15,13,01,23.80
2016,08,15,13,02,23.70
2016,08,15,13,03,23.60
2016,08,15,13,04,23.50
2016,08,15,13,05,23.40
2016,08,15,13,06,23.30
2016,08,15,13,07,23.20
2016,08,15,13,08,23.20
2016,08,15,13,09,23.20
2016,08,15,13,10,23.30
2016,08,15,13,11,23.50
2016,08,15,13,12,23.50
2016,08,15,13,13,23.60
2016,08,15,13,14,23.60
2016,08,15,13,15,23.60
2016,08,15,13,16,23.70
2016,08,15,13,17,23.70
2016,08,15,13,18,23.60
2016,08,15,13,19,23.60
2016,08,15,13,20,23.50
2016,08,15,13,21,23.40
2016,08,15,13,22,23.40
2016,08,15,13,23,23.50
2016,08,15,13,24,23.60
2016,08,15,13,25,23.70
2016,08,15,13,26,23.70
2016,08,15,13,27,23.70
2016,08,15,13,28,23.80
2016,08,15,13,29,23.90
2016,08,15,13,30,24.00
2016,08,15,13,31,24.10
2016,08,15,13,32,24.20
2016,08,15,13,33,24.20
2016,08,15,13,34,24.00
2016,08,15,13,35,23.90
2016,08,15,13,36,23.90
2016,08,15,13,37,23.90
2016,08,15,13,38,24.00
2016,08,15,13,39,24.00
2016,08,15,13,40,23.90
2016,08,15,13,41,23.90
2016,08,15,13,42,23.80
2016,08,15,13,43,23.70
2016,08,15,13,44,23.70
2016,08,15,13,45,23.70
2016,08,15,13,46,23.70
2016,08,15,13,47,23.80
2016,08,15,13,48,24.00
2016,08,15,13,49,24.10
2016,08,15,13,50,24.10
2016,08,15,13,51,24.20
2016,08,15,13,52,24.20
2016,08,15,13,53,24.30
2016,08,15,13,54,24.30
2016,08,15,13,55,24.40
2016,08,15,13,56,24.50
2016,08,15,13,57,24.60
2016,08,15,13,58,24.70
2016,08,15,13,59,24.70
2016,08,15,14,00,24.70
2016,08,15,14,01,24.70
2016,08,15,14,02,24.70
2016,08,15,14,03,24.80
2016,08,15,14,04,24.80
2016,08,15,14,05,24.90
2016,08,15,14,06,24.90
2016,08,15,14,07,24.90
2016,08,15,14,08,24.90
2016,08,15,14,09,24.90
2016,08,15,14,10,24.90
2016,08,15,14,11,25.00
2016,08,15,14,12,25.10
2016,08,15,14,13,25.10
2016,08,15,14,14,25.00
2016,08,15,14,15,25.00
2016,08,15,14,16,25.00
2016,08,15,14,17,25.10
2016,08,15,14,18,25.10
2016,08,15,14,19,25.10
2016,08,15,14,20,25.10
2016,08,15,14,21,25.00
2016,08,15,14,22,24.90
2016,08,15,14,23,24.90
2016,08,15,14,24,24.90
2016,08,15,14,25,24.90
2016,08,15,14,26,25.00
2016,08,15,14,27,25.00
2016,08,15,14,28,25.00
2016,08,15,14,29,25.00
2016,08,15,14,30,24.90
2016,08,15,14,31,24.90
2016,08,15,14,32,24.90
2016,08,15,14,33,24.90
2016,08,15,14,34,25.00
2016,08,15,14,35,25.10
2016,08,15,14,36,25.10
2016,08,15,14,37,25.20
2016,08,15,14,38,25.20
2016,08,15,14,39,25.20
2016,08,15,14,40,25.20
2016,08,15,14,41,25.30
2016,08,15,14,42,25.40
2016,08,15,14,43,25.40
2016,08,15,14,44,25.50
2016,08,15,14,45,25.60
2016,08,15,14,46,25.70
2016,08,15,14,47,25.70
2016,08,15,14,48,25.70
2016,08,15,14,49,25.70
2016,08,15,14,50,25.70
2016,08,15,14,51,25.70
2016,08,15,14,52,25.70
2016,08,15,14,53,25.70
2016,08,15,14,54,25.60
2016,08,15,14,55,25.60
2016,08,15,14,56,25.50
2016,08,15,14,57,25.40
2016,08,15,14,58,25.40
2016,08,15,14,59,25.30
2016,08,15,15,00,25.30
2016,08,15,15,01,25.30
2016,08,15,15,02,25.30
2016,08,15,15,03,25.30
2016,08,15,15,04,25.40
2016,08,15,15,05,25.50
2016,08,15,15,06,25.50
2016,08,15,15,07,25.60
2016,08,15,15,08,25.70
2016,08,15,15,09,25.80
2016,08,15,15,10,25.80
2016,08,15,15,11,25.90
2016,08,15,15,12,25.90
2016,08,15,15,13,25.90
2016,08,15,15,14,25.90
2016,08,15,15,15,25.80
2016,08,15,15,16,25.80
2016,08,15,15,17,25.80
2016,08,15,15,18,25.70
2016,08,15,15,19,25.70
2016,08,15,15,20,25.70
2016,08,15,15,21,25.80
2016,08,15,15,22,25.80
2016,08,15,15,23,25.80
2016,08,15,15,24,25.80
2016,08,15,15,25,25.80
2016,08,15,15,26,25.90
2016,08,15,15,27,26.00
2016,08,15,15,28,26.10
2016,08,15,15,29,26.10
2016,08,15,15,30,26.10
2016,08,15,15,31,26.10
2016,08,15,15,32,26.10
2016,08,15,15,33,26.10
2016,08,15,15,34,26.10
2016,08,15,15,35,26.00
2016,08,15,15,36,25.90
2016,08,15,15,37,25.80
2016,08,15,15,38,25.90
2016,08,15,15,39,25.90
2016,08,15,15,40,25.90
2016,08,15,15,41,25.90
2016,08,15,15,42,25.80
2016,08,15,15,43,25.80
2016,08,15,15,44,25.70
2016,08,15,15,45,25.70
2016,08,15,15,46,25.70
2016,08,15,15,47,25.60
2016,08,15,15,48,25.60
2016,08,15,15,49,25.60
2016,08,15,15,50,25.50
2016,08,15,15,51,25.60
2016,08,15,15,52,25.60
2016,08,15,15,53,25.60
2016,08,15,15,54,25.60
2016,08,15,15,55,25.60
2016,08,15,15,56,25.60
2016,08,15,15,57,25.60
2016,08,15,15,58,25.60
2016,08,15,15,59,25.60
2016,08,15,16,00,25.60
2016,08,15,16,01,25.70
2016,08,15,16,02,25.70
2016,08,15,16,03,25.80
2016,08,15,16,04,25.90
2016,08,15,16,05,26.00
2016,08,15,16,06,26.10
2016,08,15,16,07,26.20
2016,08,15,16,08,26.30
2016,08,15,16,09,26.40
2016,08,15,16,10,26.40
2016,08,15,16,11,26.50
2016,08,15,16,12,26.60
2016,08,15,16,13,26.60
2016,08,15,16,14,26.70
2016,08,15,16,15,26.80
2016,08,15,16,16,26.80
2016,08,15,16,17,26.90
2016,08,15,16,18,26.90
2016,08,15,16,19,26.90
2016,08,15,16,20,27.00
2016,08,15,16,21,27.00
2016,08,15,16,22,27.00
2016,08,15,16,23,27.10
2016,08,15,16,24,27.10
2016,08,15,16,25,27.20
2016,08,15,16,26,27.30
2016,08,15,16,27,27.30
2016,08,15,16,28,27.40
2016,08,15,16,29,27.40
2016,08,15,16,30,27.50
2016,08,15,16,31,27.60
2016,08,15,16,32,27.60
2016,08,15,16,33,27.60
2016,08,15,16,34,27.60
2016,08,15,16,35,27.60
2016,08,15,16,36,27.50
2016,08,15,16,37,27.50
2016,08,15,16,38,27.50
2016,08,15,16,39,27.50
2016,08,15,16,40,27.50
2016,08,15,16,41,27.50
2016,08,15,16,42,27.50
2016,08,15,16,43,27.60
2016,08,15,16,44,27.60
2016,08,15,16,45,27.70
2016,08,15,16,46,27.80
2016,08,15,16,47,27.80
2016,08,15,16,48,27.80
2016,08,15,16,49,27.70
2016,08,15,16,50,27.70
2016,08,15,16,51,27.60
2016,08,15,16,52,27.50
2016,08,15,16,53,27.40
2016,08,15,16,54,27.40
2016,08,15,16,55,27.40
2016,08,15,16,56,27.40
2016,08,15,16,57,27.40
2016,08,15,16,58,27.50
2016,08,15,16,59,27.60
2016,08,15,17,00,27.60
2016,08,15,17,01,27.70
2016,08,15,17,02,27.90
2016,08,15,17,03,28.00
2016,08,15,17,04,28.10
2016,08,15,17,05,28.20
2016,08,15,17,06,28.30
2016,08,15,17,07,28.30
2016,08,15,17,08,28.40
2016,08,15,17,09,28.40
2016,08,15,17,10,28.30
2016,08,15,17,11,28.30
2016,08,15,17,12,28.40
2016,08,15,17,13,28.40
2016,08,15,17,14,28.50
2016,08,15,17,15,28.60
2016,08,15,17,16,28.40
2016,08,15,17,17,28.30
2016,08,15,17,18,28.30
2016,08,15,17,19,28.20